Weather History for Toms River, NJ

Change the Weather History Date:

Sunday, December 22, 2013

  Actual Average Record
Temperature  
Mean Temperature 62 °F -  
Max Temperature 64 °F 44 °F 64 °F (2013)
Min Temperature 60 °F 23 °F -1 °F (1989)
Degree Days  
Heating Degree Days 3    
Growing Degree Days 12 (Base 50)    
Moisture  
Dew Point 56 °F    
Average Humidity 79    
Maximum Humidity 88    
Minimum Humidity 77    
Precipitation  
Precipitation 0.00 in - - ()
Sea Level Pressure  
Sea Level Pressure 29.94 in    
Wind  
Wind Speed 12 mph (SSW)    
Max Wind Speed 22 mph    
Max Gust Speed 33 mph    
Visibility 10 miles    
Events      
Averages and records for this station are not official NWS values.
T = Trace of Precipitation, MM = Missing Value Source: NWS Daily Summary

Daily Weather History Graph

Daily Weather History Graph

Search for Another Location

Airport:

Trip Planner

Search our weather history database for the weather conditions in past years. The results will help you decide how hot, cold, wet, or windy it might be!

Date:

Astronomy

Dec. 22, 2013 Rise Set
Actual Time 7:15 AM EST 4:36 PM EST
Civil Twilight 6:45 AM EST 5:06 PM EST
Nautical Twilight 6:11 AM EST 5:40 PM EST
Astronomical Twilight 5:38 AM EST 6:13 PM EST
Moon 9:46 PM EST (12/22) 10:11 AM EST (12/22)
Length of Visible Light 10h 21m
Length of Day
9h 20m
Waning Gibbous, 77% of the Moon is Illuminated
Dec 22
Waning Gibbous
Dec 25
Last Quarter
Jan 1
New
Jan 7
First Quarter
Jan 15
Full

Hourly Weather History & Observations

Time (EST) Temp. Dew Point Humidity Pressure Visibility Wind Dir Wind Speed Gust Speed Precip Events Conditions
12:15 AM - - N/A% 29.95 in 10.0 mi SSW 11.5 mph 19.6 mph N/A   Overcast
12:35 AM - - N/A% 29.94 in 10.0 mi SSW 12.7 mph 19.6 mph N/A   Mostly Cloudy
12:55 AM - - N/A% 29.92 in 10.0 mi SSW 10.4 mph 17.3 mph N/A   Scattered Clouds
1:15 AM - - N/A% 29.92 in 10.0 mi SSW 15.0 mph 20.7 mph N/A   Clear
1:35 AM - - N/A% 29.92 in 10.0 mi SSW 15.0 mph 20.7 mph N/A   Partly Cloudy
1:55 AM - - N/A% 29.92 in 10.0 mi SSW 12.7 mph 19.6 mph N/A   Partly Cloudy
2:15 AM - - N/A% 29.92 in 10.0 mi SSW 12.7 mph 18.4 mph N/A   Clear
2:35 AM - - N/A% 29.92 in 10.0 mi SW 11.5 mph 21.9 mph N/A   Clear
2:55 AM - - N/A% 29.93 in 10.0 mi SW 12.7 mph 20.7 mph N/A   Clear
3:15 AM - - N/A% 29.91 in 10.0 mi SSW 11.5 mph 21.9 mph N/A   Clear
3:35 AM - - N/A% 29.89 in 10.0 mi SSW 12.7 mph 26.5 mph N/A   Clear
3:55 AM - - N/A% 29.88 in 10.0 mi South 13.8 mph 23.0 mph N/A   Clear
4:15 AM - - N/A% 29.89 in 10.0 mi SSW 12.7 mph 24.2 mph N/A   Clear
4:35 AM - - N/A% 29.90 in 10.0 mi SSW 13.8 mph - N/A   Clear
4:55 AM - - N/A% 29.91 in 10.0 mi SSW 11.5 mph 19.6 mph N/A   Scattered Clouds
5:15 AM - - N/A% 29.91 in 10.0 mi SSW 15.0 mph 18.4 mph N/A   Overcast
5:35 AM - - N/A% 29.90 in 10.0 mi South 12.7 mph 19.6 mph N/A   Overcast
5:55 AM - - N/A% 29.89 in 10.0 mi SSW 9.2 mph 17.3 mph N/A   Overcast
6:15 AM - - N/A% 29.87 in 10.0 mi South 10.4 mph 16.1 mph N/A   Overcast
6:35 AM - - N/A% 29.87 in 10.0 mi SSW 13.8 mph 23.0 mph N/A   Overcast
6:55 AM - - N/A% 29.86 in 10.0 mi SSW 13.8 mph 26.5 mph N/A   Mostly Cloudy
7:15 AM - - N/A% 29.89 in 10.0 mi SSW 12.7 mph 17.3 mph N/A   Mostly Cloudy
7:35 AM - - N/A% 29.90 in 10.0 mi SSW 11.5 mph 16.1 mph N/A   Mostly Cloudy
7:55 AM - - N/A% 29.90 in 10.0 mi SSW 10.4 mph 16.1 mph N/A   Mostly Cloudy
8:15 AM - - N/A% 29.91 in 10.0 mi SSW 5.8 mph 16.1 mph N/A   Scattered Clouds
8:35 AM - - N/A% 29.92 in 10.0 mi SSW 8.1 mph - N/A   Mostly Cloudy
8:55 AM - - N/A% 29.92 in 10.0 mi SSW 6.9 mph - N/A   Mostly Cloudy
9:15 AM - - N/A% 29.93 in 10.0 mi SW 12.7 mph 17.3 mph N/A   Mostly Cloudy
9:35 AM - - N/A% 29.93 in 10.0 mi SW 9.2 mph 20.7 mph N/A   Mostly Cloudy
9:55 AM - - N/A% 29.93 in 10.0 mi SW 21.9 mph 27.6 mph N/A   Mostly Cloudy
10:15 AM - - N/A% 29.94 in 10.0 mi SW 17.3 mph 33.4 mph N/A   Mostly Cloudy
10:35 AM - - N/A% 29.95 in 10.0 mi WSW 21.9 mph 31.1 mph N/A   Overcast
10:55 AM - - N/A% 29.96 in 10.0 mi WSW 18.4 mph 27.6 mph N/A   Overcast
11:15 AM - - N/A% 29.98 in 4.0 mi WNW 17.3 mph 33.4 mph N/A   Overcast
11:35 AM 64.4 °F 60.8 °F 88% 29.98 in 10.0 mi WSW 5.8 mph - N/A   Mostly Cloudy
11:55 AM - - N/A% 29.96 in 10.0 mi WSW 3.5 mph - N/A   Overcast
12:15 PM - - N/A% 29.96 in 10.0 mi WSW 5.8 mph - N/A   Overcast
12:35 PM - - N/A% 29.96 in 10.0 mi SW 4.6 mph - N/A   Overcast
12:55 PM - - N/A% 29.94 in 10.0 mi SSW 4.6 mph - N/A   Overcast
1:15 PM - - N/A% 29.94 in 10.0 mi SSW 4.6 mph - N/A   Overcast
1:35 PM - - N/A% 29.94 in 10.0 mi SSW 6.9 mph - N/A   Overcast
1:55 PM - - N/A% 29.95 in 10.0 mi SSW 8.1 mph - N/A   Mostly Cloudy
2:15 PM - - N/A% 29.93 in 10.0 mi South 9.2 mph - N/A   Overcast
2:35 PM - - N/A% 29.93 in 10.0 mi South 10.4 mph - N/A   Overcast
2:55 PM - - N/A% 29.93 in 10.0 mi South 9.2 mph 16.1 mph N/A   Overcast
3:15 PM - - N/A% 29.92 in 10.0 mi South 15.0 mph 19.6 mph N/A   Mostly Cloudy
3:35 PM - - N/A% 29.91 in 10.0 mi South 12.7 mph 21.9 mph N/A   Mostly Cloudy
3:55 PM - - N/A% 29.93 in 10.0 mi SSW 16.1 mph 23.0 mph N/A   Overcast
4:15 PM - - N/A% 29.92 in 10.0 mi South 12.7 mph 20.7 mph N/A   Overcast
4:35 PM 62.6 °F 55.4 °F 77% 29.95 in 10.0 mi SSW 11.5 mph 20.7 mph N/A   Overcast
4:55 PM 62.6 °F 55.4 °F 77% 29.95 in 10.0 mi SSW 12.7 mph 20.7 mph N/A   Mostly Cloudy
5:15 PM 62.6 °F 55.4 °F 77% 29.97 in 10.0 mi SW 15.0 mph 21.9 mph N/A   Mostly Cloudy
5:35 PM 62.6 °F 55.4 °F 77% 29.97 in 10.0 mi SSW 13.8 mph 20.7 mph N/A   Overcast
5:55 PM 62.6 °F 55.4 °F 77% 29.96 in 10.0 mi South 11.5 mph - N/A   Mostly Cloudy
6:15 PM 62.6 °F 55.4 °F 77% 29.97 in 10.0 mi South 11.5 mph 18.4 mph N/A   Overcast
6:35 PM 60.8 °F 55.4 °F 82% 29.95 in 10.0 mi South 15.0 mph 21.9 mph N/A   Mostly Cloudy
6:55 PM 62.6 °F 55.4 °F 77% 29.95 in 10.0 mi SSW 15.0 mph 23.0 mph N/A   Partly Cloudy
7:15 PM 62.6 °F 55.4 °F 77% 29.95 in 10.0 mi South 16.1 mph 25.3 mph N/A   Clear
7:35 PM 62.6 °F 57.2 °F 82% 29.95 in 10.0 mi SSW 15.0 mph 23.0 mph N/A   Scattered Clouds
7:55 PM 62.6 °F 57.2 °F 82% 29.95 in 10.0 mi SSW 12.7 mph 24.2 mph N/A   Scattered Clouds
8:15 PM 62.6 °F 57.2 °F 82% 29.99 in 10.0 mi West 9.2 mph 16.1 mph N/A   Mostly Cloudy
8:35 PM - - N/A% 29.97 in 10.0 mi SSW 5.8 mph - N/A   Mostly Cloudy
8:55 PM - - N/A% 29.97 in 10.0 mi SW 5.8 mph - N/A   Clear
9:15 PM - - N/A% 29.96 in 10.0 mi West 6.9 mph - N/A   Scattered Clouds
9:35 PM - - N/A% 29.99 in 10.0 mi WSW 4.6 mph - N/A   Scattered Clouds
9:55 PM - - N/A% 29.99 in 10.0 mi SW 6.9 mph - N/A   Clear
10:15 PM - - N/A% 29.98 in 10.0 mi SSW 6.9 mph - N/A   Clear
10:35 PM - - N/A% 29.98 in 10.0 mi SW 4.6 mph - N/A   Clear
10:55 PM - - N/A% 29.99 in 10.0 mi SW 6.9 mph - N/A   Clear
11:15 PM - - N/A% 29.98 in 10.0 mi SW 6.9 mph - N/A   Clear
11:35 PM - - N/A% 29.98 in 10.0 mi SW 4.6 mph - N/A   Clear
11:55 PM - - N/A% 29.97 in 10.0 mi SSW 6.9 mph - N/A   Clear